Year,Month,Day,Hour,Minute,Value (Times are PST for temperature in C)
2015,03,18,08,02,5.50
2015,03,18,08,03,5.50
2015,03,18,08,04,5.50
2015,03,18,08,05,5.40
2015,03,18,08,06,5.40
2015,03,18,08,07,5.40
2015,03,18,08,08,5.40
2015,03,18,08,09,5.40
2015,03,18,08,10,5.40
2015,03,18,08,11,5.40
2015,03,18,08,12,5.40
2015,03,18,08,13,5.40
2015,03,18,08,14,5.40
2015,03,18,08,15,5.40
2015,03,18,08,16,5.40
2015,03,18,10,48,9.50
2015,03,18,10,49,9.60
2015,03,18,10,50,9.60
2015,03,18,10,51,9.60
2015,03,18,10,52,9.60
2015,03,18,10,53,9.70
2015,03,18,10,54,9.70
2015,03,18,10,55,9.80
2015,03,18,10,56,9.80
2015,03,18,10,57,9.80
2015,03,18,10,58,9.90
2015,03,18,10,59,9.90
2015,03,18,11,00,10.00
2015,03,18,11,01,10.00
2015,03,18,11,02,9.90
2015,03,18,11,03,9.90
2015,03,18,11,04,9.90
2015,03,18,11,05,9.90
2015,03,18,11,06,9.90
2015,03,18,11,07,9.90
2015,03,18,11,08,10.00
2015,03,18,11,09,10.10
2015,03,18,11,10,10.10
2015,03,18,11,11,10.10
2015,03,18,11,12,10.20
2015,03,18,11,13,10.20
2015,03,18,11,14,10.30
2015,03,18,11,15,10.30
2015,03,18,11,16,10.30
2015,03,18,11,17,10.30
2015,03,18,11,18,10.30
2015,03,18,11,19,10.40
2015,03,18,11,20,10.40
2015,03,18,11,21,10.40
2015,03,18,11,22,10.30
2015,03,18,11,23,10.40
2015,03,18,11,24,10.40
2015,03,18,11,25,10.40
2015,03,18,11,26,10.50
2015,03,18,11,27,10.60
2015,03,18,11,28,10.60
2015,03,18,11,29,10.60
2015,03,18,11,30,10.70
2015,03,18,11,31,10.70
2015,03,18,11,32,10.80
2015,03,18,11,33,10.80
2015,03,18,11,34,10.90
2015,03,18,11,35,10.90
2015,03,18,11,36,11.00
2015,03,18,11,37,11.10
2015,03,18,11,38,11.10
2015,03,18,11,39,11.10
2015,03,18,11,40,11.20
2015,03,18,11,41,11.20
2015,03,18,11,42,11.30
2015,03,18,11,43,11.40
2015,03,18,11,44,11.50
2015,03,18,11,45,11.60
2015,03,18,11,46,11.60
2015,03,18,11,47,11.60
2015,03,18,11,48,11.70
2015,03,18,11,49,11.70
2015,03,18,11,50,11.80
2015,03,18,11,51,11.80
2015,03,18,11,52,11.80
2015,03,18,11,53,11.80
2015,03,18,11,54,11.80
2015,03,18,11,55,11.80
2015,03,18,11,56,11.80
2015,03,18,11,57,11.80
2015,03,18,11,58,11.70
2015,03,18,11,59,11.60
2015,03,18,12,00,11.70
2015,03,18,12,01,11.70
2015,03,18,12,02,11.70
2015,03,18,12,03,11.80
2015,03,18,12,04,11.80
2015,03,18,12,05,11.80
2015,03,18,12,06,11.80
2015,03,18,12,07,11.80
2015,03,18,12,08,11.80
2015,03,18,12,09,11.80
2015,03,18,12,10,11.80
2015,03,18,12,11,11.90
2015,03,18,12,12,11.90
2015,03,18,12,13,11.90
2015,03,18,12,14,12.00
2015,03,18,12,15,12.00
2015,03,18,12,16,12.10
2015,03,18,12,17,12.10
2015,03,18,12,18,12.10
2015,03,18,12,19,12.10
2015,03,18,12,20,12.10
2015,03,18,12,21,11.90
2015,03,18,12,22,11.90
2015,03,18,12,23,11.80
2015,03,18,12,24,11.80
2015,03,18,12,25,11.80
2015,03,18,12,26,11.80
2015,03,18,12,27,11.90
2015,03,18,12,28,11.90
2015,03,18,12,29,11.90
2015,03,18,12,30,11.90
2015,03,18,12,31,12.00
2015,03,18,12,32,12.10
2015,03,18,12,33,12.20
2015,03,18,12,34,12.20
2015,03,18,12,35,12.10
2015,03,18,12,36,12.10
2015,03,18,12,37,12.10
2015,03,18,12,38,12.10
2015,03,18,12,39,12.20
2015,03,18,12,40,12.20
2015,03,18,12,41,12.10
2015,03,18,12,42,12.00
2015,03,18,12,43,12.00
2015,03,18,12,44,12.00
2015,03,18,12,45,12.00
2015,03,18,12,46,12.00
2015,03,18,12,47,12.00
2015,03,18,12,48,12.00
2015,03,18,12,49,12.00
2015,03,18,12,50,11.90
2015,03,18,12,51,11.80
2015,03,18,12,52,11.80
2015,03,18,12,53,11.70
2015,03,18,12,54,11.70
2015,03,18,12,55,11.80
2015,03,18,12,56,11.80
2015,03,18,12,57,11.90
2015,03,18,12,58,12.00
2015,03,18,12,59,12.10
2015,03,18,13,00,12.20
2015,03,18,13,01,12.20
2015,03,18,13,02,12.30
2015,03,18,13,03,12.30
2015,03,18,13,04,12.30
2015,03,18,13,05,12.30
2015,03,18,13,06,12.30
2015,03,18,13,07,12.40
2015,03,18,13,08,12.40
2015,03,18,13,09,12.40
2015,03,18,13,10,12.40
2015,03,18,13,11,12.40
2015,03,18,13,12,12.40
2015,03,18,13,13,12.50
2015,03,18,13,14,12.50
2015,03,18,13,15,12.60
2015,03,18,13,16,12.70
2015,03,18,13,17,12.80
2015,03,18,13,18,12.80
2015,03,18,13,19,12.80
2015,03,18,13,20,12.80
2015,03,18,13,21,12.80
2015,03,18,13,22,12.80
2015,03,18,13,23,12.70
2015,03,18,13,24,12.70
2015,03,18,13,25,12.70
2015,03,18,13,26,12.70
2015,03,18,13,27,12.60
2015,03,18,13,28,12.70
2015,03,18,13,29,12.80
2015,03,18,13,30,12.80
2015,03,18,13,31,12.80
2015,03,18,13,32,12.80
2015,03,18,13,33,12.80
2015,03,18,13,34,12.80
2015,03,18,13,35,12.80
2015,03,18,13,36,12.80
2015,03,18,13,37,12.80
2015,03,18,13,38,12.90
2015,03,18,13,39,13.00
2015,03,18,13,40,13.00
2015,03,18,13,41,13.00
2015,03,18,13,42,12.90
2015,03,18,13,43,13.00
2015,03,18,13,44,13.00
2015,03,18,13,45,13.00
2015,03,18,13,46,13.10
2015,03,18,13,47,13.20
2015,03,18,13,48,13.20
2015,03,18,13,49,13.30
2015,03,18,13,50,13.30
2015,03,18,13,51,13.40
2015,03,18,13,52,13.50
2015,03,18,13,53,13.60
2015,03,18,13,54,13.60
2015,03,18,13,55,13.70
2015,03,18,13,56,13.70
2015,03,18,13,57,13.70
2015,03,18,13,58,13.70
2015,03,18,13,59,13.70
2015,03,18,14,00,13.70
2015,03,18,14,01,13.70
2015,03,18,14,02,13.70
2015,03,18,14,03,13.70
2015,03,18,14,04,13.60
2015,03,18,14,05,13.60
2015,03,18,14,06,13.60
2015,03,18,14,07,13.50
2015,03,18,14,08,13.50
2015,03,18,14,09,13.50
2015,03,18,14,10,13.40
2015,03,18,14,11,13.50
2015,03,18,14,12,13.50
2015,03,18,14,13,13.60
2015,03,18,14,14,13.70
2015,03,18,14,15,13.70
2015,03,18,14,16,13.70
2015,03,18,14,17,13.80
2015,03,18,14,18,13.70
2015,03,18,14,19,13.70
2015,03,18,14,20,13.70
2015,03,18,14,21,13.70
2015,03,18,14,22,13.70
2015,03,18,14,23,13.70
2015,03,18,14,24,13.70
2015,03,18,14,25,13.70
2015,03,18,14,26,13.70
2015,03,18,14,27,13.80
2015,03,18,14,28,13.80
2015,03,18,14,29,13.80
2015,03,18,14,30,13.80
2015,03,18,14,31,13.80
2015,03,18,14,32,13.90
2015,03,18,14,33,14.00
2015,03,18,14,34,14.10
2015,03,18,14,35,14.10
2015,03,18,14,36,14.00
2015,03,18,14,37,14.00
2015,03,18,14,38,14.10
2015,03,18,14,39,14.30
2015,03,18,14,40,14.50
2015,03,18,14,41,14.50
2015,03,18,14,42,14.60
2015,03,18,14,43,14.60
2015,03,18,14,44,14.60
2015,03,18,14,45,14.60
2015,03,18,14,46,14.60
2015,03,18,14,47,14.70
2015,03,18,14,48,14.70
2015,03,18,14,49,14.80
2015,03,18,14,50,14.80
2015,03,18,14,51,14.90
2015,03,18,14,52,14.90
2015,03,18,14,53,14.90
2015,03,18,14,54,14.80
2015,03,18,14,55,14.80
2015,03,18,14,56,14.80
2015,03,18,14,57,14.80
2015,03,18,14,58,14.80
2015,03,18,14,59,14.80
2015,03,18,15,00,14.80
2015,03,18,15,01,14.80
2015,03,18,15,02,14.80
2015,03,18,15,03,14.80
2015,03,18,15,04,14.70
2015,03,18,15,05,14.60
2015,03,18,15,06,14.50
2015,03,18,15,07,14.40
2015,03,18,15,08,14.30
2015,03,18,15,09,14.30
2015,03,18,15,10,14.30
2015,03,18,15,11,14.30
2015,03,18,15,12,14.30
2015,03,18,15,13,14.30
2015,03,18,15,14,14.20
2015,03,18,15,15,14.20
2015,03,18,15,16,14.20
2015,03,18,15,17,14.20
2015,03,18,15,18,14.20
2015,03,18,15,19,14.10
2015,03,18,15,20,14.00
2015,03,18,15,21,13.90
2015,03,18,15,22,13.90
2015,03,18,15,23,13.80
2015,03,18,15,24,13.90
2015,03,18,15,25,13.90
2015,03,18,15,26,13.90
2015,03,18,15,27,13.90
2015,03,18,15,28,13.90
2015,03,18,15,29,14.00
2015,03,18,15,30,14.00
2015,03,18,15,31,14.00
2015,03,18,15,32,14.00
2015,03,18,15,33,14.00
2015,03,18,15,34,14.00
2015,03,18,15,35,14.00
2015,03,18,15,36,13.90
2015,03,18,15,37,13.90
2015,03,18,15,38,14.00
2015,03,18,15,39,14.00
2015,03,18,15,40,13.90
2015,03,18,15,41,13.90
2015,03,18,15,42,13.90
2015,03,18,15,43,14.00
2015,03,18,15,44,14.10
2015,03,18,15,45,14.10
2015,03,18,15,46,14.10
2015,03,18,15,47,14.20
2015,03,18,15,48,14.30
2015,03,18,15,49,14.30
2015,03,18,15,50,14.30
2015,03,18,15,51,14.20
2015,03,18,15,52,14.20
2015,03,18,15,53,14.20
2015,03,18,15,54,14.20
2015,03,18,15,55,14.10
2015,03,18,15,56,14.00
2015,03,18,15,57,14.00
2015,03,18,15,58,13.90
2015,03,18,15,59,13.90
2015,03,18,16,00,13.80
2015,03,18,16,01,13.70
2015,03,18,16,02,13.60
2015,03,18,16,03,13.50
2015,03,18,16,04,13.50
2015,03,18,16,05,13.50
2015,03,18,16,06,13.40
2015,03,18,16,07,13.40
2015,03,18,16,08,13.40
2015,03,18,16,09,13.30
2015,03,18,16,10,13.30
2015,03,18,16,11,13.20
2015,03,18,16,12,13.10
2015,03,18,16,13,13.10
2015,03,18,16,14,13.00
2015,03,18,16,15,13.00
2015,03,18,16,16,12.90
2015,03,18,16,17,12.90
2015,03,18,16,18,12.90
2015,03,18,16,19,12.90
2015,03,18,16,20,12.90
2015,03,18,16,21,12.80
2015,03,18,16,22,12.80
2015,03,18,16,23,12.80
2015,03,18,16,24,12.80
2015,03,18,16,25,12.80
2015,03,18,16,26,12.80
2015,03,18,16,27,12.80
2015,03,18,16,28,12.90
2015,03,18,16,29,12.90
2015,03,18,16,30,12.90
2015,03,18,16,31,13.00
2015,03,18,16,32,13.00
2015,03,18,16,33,13.00
2015,03,18,16,34,13.00
2015,03,18,16,35,12.90
2015,03,18,16,36,12.90
2015,03,18,16,37,12.90
2015,03,18,16,38,12.90
2015,03,18,16,39,13.00
2015,03,18,16,40,13.00
2015,03,18,16,41,13.10
2015,03,18,16,42,13.10
2015,03,18,16,43,13.10
2015,03,18,16,44,13.10
2015,03,18,16,45,13.00
2015,03,18,16,46,13.00
2015,03,18,16,47,13.00
2015,03,18,16,48,13.00
2015,03,18,16,49,13.00
2015,03,18,16,50,13.00
2015,03,18,16,51,13.00
2015,03,18,16,52,12.80
2015,03,18,16,53,12.80
2015,03,18,16,54,12.80
2015,03,18,16,55,12.80
2015,03,18,16,56,12.70
2015,03,18,16,57,12.70
2015,03,18,16,58,12.70
2015,03,18,16,59,12.70
2015,03,18,17,00,12.70
2015,03,18,17,01,12.80
2015,03,18,17,02,12.80
2015,03,18,17,03,12.80
2015,03,18,17,04,12.80
2015,03,18,17,05,12.80
2015,03,18,17,06,12.80
2015,03,18,17,07,12.80
2015,03,18,17,08,12.80
2015,03,18,17,09,12.80
2015,03,18,17,10,12.80
2015,03,18,17,11,12.80
2015,03,18,17,12,12.80
2015,03,18,17,13,12.80
2015,03,18,17,14,12.80
2015,03,18,17,15,12.80
2015,03,18,17,16,12.80
2015,03,18,17,17,12.80
2015,03,18,17,18,12.80
2015,03,18,17,19,12.80
2015,03,18,17,20,12.70
2015,03,18,17,21,12.70
2015,03,18,17,22,12.70
2015,03,18,17,23,12.70
2015,03,18,17,24,12.70
2015,03,18,17,25,12.60
2015,03,18,17,26,12.60
2015,03,18,17,27,12.60
2015,03,18,17,28,12.50
2015,03,18,17,29,12.50
2015,03,18,17,30,12.50
2015,03,18,17,31,12.50
2015,03,18,17,32,12.50
2015,03,18,17,33,12.50
2015,03,18,17,34,12.50
2015,03,18,17,35,12.50
2015,03,18,17,36,12.50
2015,03,18,17,37,12.50
2015,03,18,17,38,12.40
2015,03,18,17,39,12.40
2015,03,18,17,40,12.40
2015,03,18,17,41,12.40
2015,03,18,17,42,12.30
2015,03,18,17,43,12.30
2015,03,18,17,44,12.30
2015,03,18,17,45,12.30
2015,03,18,17,46,12.30
2015,03,18,17,47,12.30
2015,03,18,17,48,12.30
2015,03,18,17,49,12.30
2015,03,18,17,50,12.30
2015,03,18,17,51,12.30
2015,03,18,17,52,12.30
2015,03,18,17,53,12.30
2015,03,18,17,54,12.30
2015,03,18,17,55,12.30
2015,03,18,17,56,12.20
2015,03,18,17,57,12.20
2015,03,18,17,58,12.20
2015,03,18,17,59,12.10
2015,03,18,18,00,12.10
2015,03,18,18,01,12.00
2015,03,18,18,02,11.90
2015,03,18,18,03,11.90
2015,03,18,18,04,11.80
2015,03,18,18,05,11.80
2015,03,18,18,06,11.80
2015,03,18,18,07,11.80
2015,03,18,18,08,11.80
2015,03,18,18,09,11.80
2015,03,18,18,10,11.80
2015,03,18,18,11,11.80
2015,03,18,18,12,11.70
2015,03,18,18,13,11.70
2015,03,18,18,14,11.60
2015,03,18,18,15,11.60
2015,03,18,18,16,11.60
2015,03,18,18,17,11.60
2015,03,18,18,18,11.50
2015,03,18,18,19,11.40
2015,03,18,18,20,11.40
2015,03,18,18,21,11.40
2015,03,18,18,22,11.40
2015,03,18,18,23,11.40
2015,03,18,18,24,11.40
2015,03,18,18,25,11.40
2015,03,18,18,26,11.40
2015,03,18,18,27,11.40
2015,03,18,18,28,11.40
2015,03,18,18,29,11.40
2015,03,18,18,30,11.40
2015,03,18,18,31,11.30
2015,03,18,18,32,11.30
2015,03,18,18,33,11.30
2015,03,18,18,34,11.20
2015,03,18,18,35,11.20
2015,03,18,18,36,11.20
2015,03,18,18,37,11.10
2015,03,18,18,38,11.10
2015,03,18,18,39,11.10
2015,03,18,18,40,11.00
2015,03,18,18,41,10.90
2015,03,18,18,42,10.90
2015,03,18,18,43,10.90
2015,03,18,18,44,10.90
2015,03,18,18,45,10.90
2015,03,18,18,46,10.90
2015,03,18,18,47,10.90
2015,03,18,18,48,10.90
2015,03,18,18,49,10.90
2015,03,18,18,50,10.90
2015,03,18,18,51,10.90
2015,03,18,18,52,10.90
2015,03,18,18,53,10.90
2015,03,18,18,54,10.90
2015,03,18,18,55,10.90
2015,03,18,18,56,10.90
2015,03,18,18,57,10.90
2015,03,18,18,58,10.90
2015,03,18,18,59,10.90
2015,03,18,19,00,10.90
2015,03,18,19,01,10.90
2015,03,18,19,02,10.90
2015,03,18,19,03,10.90
